Regional Weather Roundup
Issued by NWS Midland/Odessa, TX

Skip options and go directly to product.
Home | Oldest Version | Previous Version | Current Version | All | Graphics & Text | Save Text | Print | Product List | Glossary On

Skip product version selection by date and time.   
876
ASUS44 KMAF 130410
RWRMAF
MIDLAND AREA WEATHER ROUNDUP
NATIONAL WEATHER SERVICE MIDLAND TX
1000 PM CST FRI FEB 12 2016

...IN SOUTHWEST TEXAS AND SOUTHEAST NEW MEXICO...

CITY           SKY/WX    TMP DP  RH WIND       PRES   REMARKS
ALPINE         CLEAR     41  23  49 SW6       30.38F WCI  37
ANDREWS        FAIR      51  30  44 E9        30.31S
ARTESIA        CLEAR     45  27  49 SW10      30.28R WCI  39
BIG SPRING     CLEAR     50  30  46 NE10      30.33R
CARLSBAD       CLEAR     43  26  51 SW7       30.26R WCI  39
DRYDEN           N/A     58  21  24 N6        30.23R
FORT STOCKTON  CLEAR     56  28  34 CALM      30.28R
GUAD PASS      CLEAR     52  18  26 NE23      30.34S
HOBBS          CLEAR     45  27  49 E8        30.32R
MARFA          CLEAR     41  18  39 NW7       30.34S WCI  36
MIDLAND AIRPK  CLEAR     50  31  47 E3        30.31R
MIDLAND INTL   CLEAR     52  31  44 E7        30.29R
ODESSA         CLEAR     56  30  37 E12       30.30R
PECOS          CLEAR     47  24  41 CALM      30.26S
PRESIDIO       FAIR      60  11  14 N13G18    30.22R
SEMINOLE       CLEAR     46  27  46 E5        30.33R
SNYDER           N/A     52  32  46 E10       30.33S
WINK           CLEAR     54  27  35 E7        30.26R
$$
...OTHER STATIONS IN TEXAS...

CITY           SKY/WX    TMP DP  RH WIND       PRES   REMARKS
ABILENE        CLEAR     51  34  52 E8        30.33R
AMARILLO       CLEAR     46  32  58 SE17      30.35S WCI  39
AUSTIN         CLEAR     60  43  53 N10       30.28R
BROWNSVILLE    CLEAR     59  58  96 E5        30.25S
CORPUS CHRISTI PTCLDY    62  56  80 SE10      30.24S
DALLAS FTW     CLEAR     54  34  46 NE9       30.34R
DEL RIO        CLEAR     65  33  30 SE6       30.20R
EL PASO        PTCLDY    52  16  24 CALM      30.25R
HOUSTON INT    PTCLDY    62  56  80 CALM      30.27R
LUBBOCK        CLEAR     44  28  53 SE10      30.32S WCI  39
SAN ANGELO     CLEAR     52  31  44 E5        30.29R
SAN ANTONIO    CLEAR     63  42  46 NE5       30.27R
WACO           CLEAR     51  36  56 NE8       30.31R
WICHITA FALLS  NOT AVBL
$$
...OTHER LOCATIONS IN NEW MEXICO...

CITY           SKY/WX    TMP DP  RH WIND       PRES   REMARKS
ALAMAGORDO     CLOUDY    48  10  21 SW3       30.28R
ALBUQUERQUE    CLOUDY    49  19  30 CALM      30.31S
CANNON AFB     CLEAR     44  24  45 SE6       30.32R
CLOVIS         CLOUDY    39  23  52 E8        30.34R WCI  34
HOLLOMAN AFB   CLOUDY    49  10  20 SE5       30.26R
ROSWELL        CLOUDY    41  24  51 W7        30.27R WCI  36
RUIDOSO          N/A     48  16  27 CALM      30.41S
SANTA FE       CLOUDY    39  21  48 NW5       30.35R WCI  36
TRUTH OR CONSE CLEAR     49   2  14 NW7       30.28R
TUCUMCARI      CLEAR     40  24  53 NE6       30.30R WCI  36
$$

USA.gov is the U.S. government's official web portal to all federal, state and local government web resources and services.